St. Petersburg, FL

6:39 PM EST on November 21, 2017 (GMT -0500)
Whitted

Weather History for KSPG - March, 2014

Change the Weather History Date:

Saturday, March 15, 2014

  Actual Average Record
Temperature  
Mean Temperature 68 °F -  
Max Temperature 77 °F 75 °F 85 °F (1973)
Min Temperature 61 °F 60 °F 41 °F (1993)
Cooling Degree Days 3    
Growing Degree Days 18 (Base 50)    
Moisture  
Dew Point 57 °F    
Average Humidity 68    
Maximum Humidity 81    
Minimum Humidity 50    
Precipitation  
Precipitation 0.00 in - - ()
Sea Level Pressure  
Sea Level Pressure 30.10 in    
Wind  
Wind Speed 8 mph (ESE)    
Max Wind Speed 15 mph    
Max Gust Speed -    
Visibility 10 miles    
Events      
Averages and records for this station are not official NWS values.
T = Trace of Precipitation, MM = Missing Value Source: NWS Daily Summary

Daily Weather History Graph

Daily Weather History Graph

Search for Another Location

Airport or City:

Trip Planner

Search our weather history database for the weather conditions in past years. The results will help you decide how hot, cold, wet, or windy it might be!

Date:

Astronomy

Mar. 15, 2014 Rise Set
Actual Time 7:40 AM EDT 7:39 PM EDT
Civil Twilight 7:16 AM EDT 8:02 PM EDT
Nautical Twilight 6:49 AM EDT 8:29 PM EDT
Astronomical Twilight 6:22 AM EDT 8:56 PM EDT
Moon 6:58 PM EDT (3/15) 6:48 AM EDT (3/15)
Length of Visible Light 12h 45m
Length of Day
11h 59m
Waxing Gibbous, 99% of the Moon is Illuminated
Mar 15
Waxing Gibbous
Mar 16
Full
Mar 23
Last Quarter
Mar 30
New
Apr 7
First Quarter

Hourly Weather History & Observations

Time (EDT) Temp. Dew Point Humidity Pressure Visibility Wind Dir Wind Speed Gust Speed Precip Events Conditions
12:53 AM 63.0 °F 55.9 °F 78% 30.17 in 10.0 mi NNE 3.5 mph - N/A   Clear
1:53 AM 64.9 °F 55.0 °F 70% 30.15 in 10.0 mi SSE 12.7 mph - N/A   Clear
2:53 AM 64.0 °F 55.9 °F 75% 30.14 in 10.0 mi SSE 11.5 mph - N/A   Clear
3:53 AM 63.0 °F 55.0 °F 75% 30.13 in 10.0 mi SSE 10.4 mph - N/A   Clear
4:53 AM 61.0 °F 55.0 °F 81% 30.11 in 10.0 mi South 11.5 mph - N/A   Clear
5:53 AM 62.1 °F 55.9 °F 80% 30.09 in 10.0 mi SSE 15.0 mph - N/A   Clear
6:53 AM 62.1 °F 55.0 °F 78% 30.10 in 10.0 mi SSE 12.7 mph - N/A   Clear
7:53 AM 62.1 °F 55.9 °F 80% 30.13 in 10.0 mi South 6.9 mph - N/A   Clear
8:53 AM 64.9 °F 57.0 °F 75% 30.15 in 10.0 mi East 5.8 mph - N/A   Clear
9:53 AM 66.0 °F 57.0 °F 73% 30.17 in 10.0 mi ENE 6.9 mph - N/A   Clear
10:53 AM 66.9 °F 57.9 °F 73% 30.16 in 10.0 mi East 5.8 mph - N/A   Clear
11:53 AM 70.0 °F 59.0 °F 68% 30.17 in 10.0 mi ENE 4.6 mph - N/A   Clear
12:53 PM 73.0 °F 57.9 °F 59% 30.14 in 10.0 mi ENE 3.5 mph - N/A   Clear
1:53 PM 75.0 °F 57.9 °F 55% 30.11 in 10.0 mi ENE 3.5 mph - N/A   Clear
2:53 PM 75.9 °F 57.9 °F 54% 30.08 in 10.0 mi ENE 3.5 mph - N/A   Clear
3:53 PM 75.0 °F 55.0 °F 50% 30.05 in 10.0 mi SSE 6.9 mph - N/A   Clear
4:53 PM 75.0 °F 55.9 °F 51% 30.04 in 10.0 mi WSW 10.4 mph - N/A   Clear
5:53 PM 73.9 °F 55.0 °F 52% 30.02 in 10.0 mi SW 9.2 mph - N/A   Clear
6:53 PM 73.0 °F 55.9 °F 55% 30.04 in 10.0 mi West 9.2 mph - N/A   Clear
7:53 PM 71.1 °F 57.0 °F 61% 30.03 in 10.0 mi West 5.8 mph - N/A   Clear
8:53 PM 70.0 °F 57.0 °F 63% 30.03 in 10.0 mi North 6.9 mph - N/A   Clear
9:53 PM 69.1 °F 57.9 °F 68% 30.04 in 10.0 mi North 3.5 mph - N/A   Clear
10:53 PM 68.0 °F 59.0 °F 73% 30.04 in 10.0 mi NNE 3.5 mph - N/A   Clear
11:53 PM 68.0 °F 59.0 °F 73% 30.04 in 10.0 mi East 11.5 mph - N/A   Clear